| time (UTC) | temp F | wind direction | speed knots | gust knots | rain 1hr in | rain 24hr in | rain mn in | humidity % | barometer mb |
| 20260905073015 | 62 | 218 | 0.0 | 0.0 | 0.00 | 0.00 | 0.00 | 1 | 1010.0 |
| 20260905071513 | 62 | 218 | 0.0 | 0.0 | 0.00 | 0.00 | 0.00 | 1 | 1010.1 |
| 20260905070009 | 63 | 218 | 0.0 | 0.0 | 0.00 | 0.00 | 0.00 | 1 | 1010.3 |
| 20260905064508 | 63 | 218 | 0.0 | 0.0 | 0.00 | 0.00 | 0.00 | 1 | 1010.3 |
| 20260905063101 | 63 | 218 | 0.0 | 0.0 | 0.00 | 0.00 | 0.00 | 1 | 1010.4 |
| 20260905061604 | 63 | 218 | 0.0 | 0.0 | 0.00 | 0.00 | 0.00 | 1 | 1010.5 |
| 20260905060051 | 63 | 218 | 0.0 | 0.0 | 0.00 | 0.00 | 0.00 | 1 | 1010.5 |
| 20260905054634 | 64 | 218 | 0.0 | 0.0 | 0.00 | 0.00 | 0.00 | 1 | 1010.6 |
| 20260905053046 | 65 | 218 | 0.0 | 0.0 | 0.00 | 0.00 | 0.00 | 1 | 1010.7 |
| 20260905051542 | 65 | 218 | 0.0 | 0.0 | 0.00 | 0.00 | 0.00 | 1 | 1010.7 |
| 20260905050038 | 65 | 232 | 0.0 | 0.0 | 0.00 | 0.00 | 0.00 | 1 | 1010.7 |
| 20260905044534 | 66 | 289 | 0.0 | 0.9 | 0.00 | 0.00 | 0.00 | 1 | 1010.9 |
| 20260905043030 | 66 | 196 | 0.0 | 0.0 | 0.00 | 0.37 | 0.00 | 1 | 1011.0 |
| 20260905041527 | 66 | 238 | 0.0 | 0.0 | 0.00 | 0.37 | 0.00 | 1 | 1010.9 |
| 20260905040023 | 66 | 232 | 0.0 | 0.0 | 0.00 | 0.37 | 0.00 | 1 | 1010.9 |
| 20260905034519 | 66 | 230 | 0.0 | 0.0 | 0.00 | 0.37 | 0.00 | 1 | 1010.8 |
| 20260905033017 | 66 | 249 | 0.0 | 0.0 | 0.00 | 0.37 | 0.00 | 1 | 1010.8 |
| 20260905031510 | 66 | 239 | 0.0 | 0.0 | 0.00 | 0.37 | 0.00 | 1 | 1010.8 |
| 20260905030010 | 67 | 326 | 0.0 | 0.0 | 0.00 | 0.37 | 0.00 | 1 | 1010.8 |
| 20260905024501 | 68 | 326 | 0.0 | 0.0 | 0.00 | 0.37 | 0.00 | 1 | 1010.8 |
| 20260905023057 | 68 | 326 | 0.0 | 0.0 | 0.00 | 0.37 | 0.00 | 1 | 1010.8 |
| 20260905021555 | 69 | 326 | 0.0 | 0.0 | 0.00 | 0.37 | 0.00 | 1 | 1010.8 |
| 20260905020055 | 69 | 326 | 0.0 | 0.0 | 0.00 | 0.37 | 0.00 | 1 | 1010.9 |
| 20260905014546 | 70 | 326 | 0.0 | 0.0 | 0.00 | 0.37 | 0.00 | 1 | 1011.0 |
| 20260905013042 | 70 | 326 | 0.0 | 0.0 | 0.00 | 0.37 | 0.00 | 1 | 1011.1 |
| 20260905011552 | 70 | 326 | 0.0 | 0.0 | 0.00 | 0.37 | 0.00 | 1 | 1011.0 |
| 20260905010058 | 70 | 277 | 0.0 | 0.0 | 0.00 | 0.37 | 0.00 | 1 | 1010.8 |
| 20260905004544 | 69 | 309 | 0.0 | 0.0 | 0.00 | 0.37 | 0.00 | 1 | 1010.8 |
| 20260905003041 | 69 | 242 | 0.0 | 0.0 | 0.00 | 0.37 | 0.00 | 1 | 1010.6 |
| 20260905001525 | 69 | 242 | 0.0 | 0.0 | 0.00 | 0.37 | 0.00 | 1 | 1010.5 |
| 20260905000031 | 69 | 242 | 0.0 | 0.0 | 0.00 | 0.37 | 0.00 | 1 | 1010.4 |
| 20260904234517 | 70 | 205 | 0.0 | 0.0 | 0.00 | 0.37 | 0.00 | 1 | 1010.3 |
| 20260904233013 | 70 | 202 | 0.0 | 0.0 | 0.00 | 0.37 | 0.00 | 1 | 1010.1 |
| 20260904231517 | 70 | 200 | 0.0 | 0.0 | 0.00 | 0.37 | 0.00 | 1 | 1010.2 |
| 20260904230015 | 72 | 200 | 0.0 | 0.0 | 0.00 | 0.37 | 0.00 | 1 | 1010.0 |
| 20260904224503 | 73 | 200 | 0.0 | 0.0 | 0.00 | 0.37 | 0.00 | 1 | 1010.1 |
| 20260904223100 | 75 | 200 | 0.0 | 0.9 | 0.00 | 0.37 | 0.00 | 1 | 1010.1 |
| 20260904221603 | 77 | 61 | 0.0 | 0.0 | 0.00 | 0.37 | 0.00 | 1 | 1010.0 |
| 20260904220057 | 77 | 38 | 0.0 | 0.9 | 0.00 | 0.37 | 0.00 | 32 | 1009.8 |
| 20260904214544 | 79 | 245 | 0.0 | 0.0 | 0.00 | 0.37 | 0.00 | 25 | 1009.6 |
| 20260904213040 | 79 | 246 | 0.0 | 0.0 | 0.00 | 0.37 | 0.00 | 46 | 1009.6 |
| 20260904211542 | 80 | 291 | 0.0 | 0.9 | 0.00 | 0.37 | 0.00 | 46 | 1009.7 |
| 20260904210040 | 80 | 213 | 0.0 | 0.0 | 0.00 | 0.37 | 0.00 | 46 | 1009.8 |
| 20260904204534 | 80 | 15 | 0.0 | 0.0 | 0.00 | 0.37 | 0.00 | 46 | 1010.0 |
| 20260904203038 | 81 | 350 | 0.0 | 0.0 | 0.00 | 0.37 | 0.00 | 47 | 1010.1 |
| 20260904201525 | 80 | 52 | 0.0 | 0.9 | 0.00 | 0.37 | 0.00 | 46 | 1010.2 |
| 20260904200021 | 80 | 213 | 0.0 | 7.8 | 0.00 | 0.37 | 0.00 | 42 | 1010.5 |
| 20260904194516 | 79 | 344 | 0.0 | 0.0 | 0.00 | 0.37 | 0.00 | 38 | 1010.5 |
| 20260904193012 | 79 | 360 | 0.0 | 1.7 | 0.00 | 0.37 | 0.00 | 37 | 1010.7 |
| 20260904191508 | 79 | 27 | 0.0 | 0.9 | 0.00 | 0.37 | 0.00 | 36 | 1010.7 |
| 20260904190004 | 81 | 29 | 0.0 | 1.7 | 0.00 | 0.37 | 0.00 | 38 | 1010.8 |
| 20260904184620 | 80 | 174 | 0.0 | 7.0 | 0.00 | 0.37 | 0.00 | 42 | 1010.7 |
| 20260904183056 | 81 | 312 | 0.0 | 0.9 | 0.00 | 0.37 | 0.00 | 34 | 1010.8 |
| 20260904181553 | 80 | 246 | 0.0 | 0.9 | 0.00 | 0.37 | 0.00 | 31 | 1011.1 |
| 20260904180050 | 80 | 213 | 0.0 | 0.9 | 0.00 | 0.37 | 0.00 | 30 | 1011.2 |
| 20260904174544 | 79 | 22 | 0.0 | 0.9 | 0.00 | 0.37 | 0.00 | 35 | 1011.6 |
| 20260904173055 | 80 | 241 | 0.0 | 0.9 | 0.00 | 0.37 | 0.00 | 26 | 1011.5 |
| 20260904171544 | 80 | 238 | 0.0 | 1.7 | 0.00 | 0.37 | 0.00 | 20 | 1011.6 |
| 20260904170038 | 79 | 222 | 0.0 | 0.0 | 0.00 | 0.37 | 0.00 | 17 | 1011.8 |
| 20260904164529 | 78 | 347 | 0.0 | 3.5 | 0.00 | 0.37 | 0.00 | 7 | 1011.6 |
| 20260904163024 | 78 | 217 | 0.0 | 0.0 | 0.00 | 0.37 | 0.00 | 1 | 1011.6 |
| 20260904161528 | 77 | 304 | 0.0 | 0.9 | 0.00 | 0.37 | 0.00 | 1 | 1011.9 |
| 20260904160021 | 77 | 350 | 0.0 | 0.0 | 0.00 | 0.37 | 0.00 | 1 | 1011.9 |
| 20260904154517 | 76 | 20 | 0.0 | 0.9 | 0.00 | 0.37 | 0.00 | 1 | 1011.9 |
| 20260904153015 | 76 | 17 | 0.0 | 4.3 | 0.00 | 0.37 | 0.00 | 1 | 1012.2 |
| 20260904151508 | 75 | 15 | 0.0 | 3.5 | 0.00 | 0.37 | 0.00 | 1 | 1012.0 |
| 20260904150004 | 74 | 23 | 0.0 | 0.9 | 0.00 | 0.37 | 0.00 | 1 | 1012.0 |
| 20260904144600 | 74 | 9 | 0.0 | 2.6 | 0.00 | 0.37 | 0.00 | 1 | 1012.0 |
| 20260904143055 | 74 | 227 | 0.0 | 2.6 | 0.00 | 0.37 | 0.00 | 1 | 1012.1 |
| 20260904141601 | 74 | 13 | 0.0 | 0.9 | 0.00 | 0.37 | 0.00 | 1 | 1012.2 |
| 20260904140106 | 73 | 5 | 0.0 | 0.9 | 0.00 | 0.37 | 0.00 | 1 | 1012.1 |
| 20260904134609 | 73 | 36 | 0.0 | 0.9 | 0.00 | 0.37 | 0.00 | 1 | 1012.1 |
| 20260904133048 | 72 | 21 | 0.0 | 0.0 | 0.00 | 0.37 | 0.00 | 1 | 1011.9 |
| 20260904131541 | 70 | 296 | 0.0 | 0.0 | 0.00 | 0.37 | 0.00 | 1 | 1011.8 |
| 20260904130039 | 69 | 302 | 0.0 | 0.0 | 0.00 | 0.37 | 0.00 | 1 | 1011.9 |
| 20260904124530 | 68 | 227 | 0.0 | 0.9 | 0.00 | 0.37 | 0.00 | 1 | 1012.1 |
| 20260904123025 | 67 | 180 | 0.0 | 1.7 | 0.00 | 0.37 | 0.00 | 1 | 1012.1 |
| 20260904121523 | 67 | 263 | 0.0 | 0.0 | 0.00 | 0.37 | 0.00 | 1 | 1011.9 |
| 20260904120021 | 67 | 206 | 0.0 | 0.0 | 0.00 | 0.37 | 0.00 | 1 | 1011.8 |
| 20260904114514 | 66 | 240 | 0.0 | 0.0 | 0.00 | 0.37 | 0.00 | 1 | 1011.8 |
| 20260904113011 | 66 | 240 | 0.0 | 0.0 | 0.00 | 0.37 | 0.00 | 1 | 1011.8 |
| 20260904111507 | 67 | 223 | 0.0 | 0.0 | 0.00 | 0.37 | 0.00 | 1 | 1011.5 |
| 20260904110003 | 67 | 244 | 0.0 | 0.0 | 0.00 | 0.37 | 0.00 | 1 | 1011.4 |
| 20260904104602 | 67 | 244 | 0.0 | 0.0 | 0.00 | 0.37 | 0.00 | 1 | 1011.5 |
| 20260904103058 | 67 | 244 | 0.0 | 0.0 | 0.00 | 0.37 | 0.00 | 1 | 1011.3 |
| 20260904101552 | 67 | 244 | 0.0 | 0.0 | 0.00 | 0.37 | 0.00 | 1 | 1011.3 |
| 20260904100059 | 67 | 244 | 0.0 | 0.0 | 0.00 | 0.37 | 0.00 | 1 | 1011.1 |
| 20260904094554 | 67 | 244 | 0.0 | 0.0 | 0.00 | 0.37 | 0.00 | 1 | 1011.1 |
| 20260904093039 | 67 | 244 | 0.0 | 0.0 | 0.00 | 0.39 | 0.00 | 1 | 1011.1 |
| 20260904091539 | 67 | 236 | 0.0 | 0.0 | 0.00 | 0.39 | 0.00 | 1 | 1011.0 |
| 20260904090044 | 67 | 236 | 0.0 | 0.0 | 0.00 | 0.39 | 0.00 | 1 | 1011.0 |
| 20260904084530 | 68 | 236 | 0.0 | 0.0 | 0.00 | 0.39 | 0.00 | 1 | 1010.8 |
| 20260904083051 | 68 | 236 | 0.0 | 0.0 | 0.00 | 0.39 | 0.00 | 1 | 1010.6 |
| 20260904081529 | 68 | 236 | 0.0 | 0.0 | 0.00 | 0.39 | 0.00 | 1 | 1010.5 |
| 20260904080017 | 69 | 236 | 0.0 | 0.0 | 0.00 | 0.39 | 0.00 | 1 | 1010.3 |
| 20260904074513 | 69 | 236 | 0.0 | 0.0 | 0.00 | 0.39 | 0.00 | 1 | 1010.1 |